• Join FlightAware (Why Join?)
  • Login
  • US Flag 
 
09:41AM EST


 

Airport Tracker/Info


-or-


 

Live Flight TrackerFlight Track Log ✈ SWA311 ✈ 11-Apr-2013 ✈ KHOU - KEWR

Flight Track Log - Related Links

Times and Time Zones

All times are in EDT time to prevent confusion due to time zone crossing. See the SWA311 flight status page for this flight to view local times or setup timezone preferences in your user account.

Time Position Orientation Groundspeed Altitude Reporting Facility
EDT Latitude Longitude Course Direction KTS MPH feet Rate Location/Type
06:54PM 29.6758 -95.2961 344° North 186 214 2,000  Level Houston Center
06:55PM 29.7331 -95.3014 355° North 211 243 5,200 2,760 Climbing Houston Center
06:55PM 29.7458 -95.3025 356° North 215 247 5,600 3,420 Climbing Houston Center
06:56PM 29.8189 -95.3078 356° North 261 300 9,700 3,000 Climbing Houston Center
06:57PM 29.8950 -95.3456 337° Northwest 297 342 11,900 3,240 Climbing Houston Center
06:58PM 30.0019 -95.3972 337° Northwest 343 395 16,400 3,660 Climbing Houston Center
06:59PM 30.0922 -95.4408 337° Northwest 349 402 19,500 2,820 Climbing Houston Center
07:00PM 30.1864 -95.4869 337° Northwest 361 415 22,300 2,220 Climbing Houston Center
07:01PM 30.2844 -95.5317 339° North 373 429 24,100 1,920 Climbing Houston Center
07:02PM 30.3839 -95.5806 337° Northwest 385 443 26,300 2,040 Climbing Houston Center
07:03PM 30.4875 -95.6297 338° Northwest 397 457 28,400 1,920 Climbing Houston Center
07:04PM 30.6161 -95.6947 336° Northwest 418 481 30,300 1,740 Climbing Houston Center
07:05PM 30.7231 -95.7522 335° Northwest 430 495 32,100 1,920 Climbing Houston Center
07:06PM 30.8317 -95.8097 336° Northwest 426 490 34,300 1,920 Climbing Houston Center
07:07PM 30.9344 -95.8667 335° Northwest 412 474 36,100 1,500 Climbing Houston Center
07:08PM 31.0414 -95.9225 336° Northwest 414 476 37,500 1,080 Climbing Houston Center
07:09PM 31.1719 -95.9800 339° North 421 484 38,400 660 Climbing Houston Center
07:10PM 31.2972 -96.0081 349° North 449 517 38,900 240 Climbing Houston Center
07:11PM 31.4208 -96.0372 349° North 452 520 39,000  Climbing Houston Center
07:12PM 31.5339 -96.0631 349° North 449 517 39,000  Level Fort Worth Center
07:13PM 31.6444 -96.0517 North 444 511 39,000  Level Fort Worth Center
07:14PM 31.7644 -95.9692 30° Northeast 462 532 39,000 240 Level Fort Worth Center
07:15PM 31.8783 -95.8892 31° Northeast 471 542 39,500 780 Climbing Fort Worth Center
07:16PM 32.0108 -95.7939 31° Northeast 492 566 40,600 720 Climbing Fort Worth Center
07:17PM 32.1144 -95.7208 31° Northeast 492 566 41,000 180 Climbing Fort Worth Center
07:18PM 32.2300 -95.6378 31° Northeast 492 566 41,000  Level Fort Worth Center
07:19PM 32.3481 -95.5567 30° Northeast 484 557 41,000  Level Fort Worth Center
07:20PM 32.4656 -95.4731 31° Northeast 484 557 41,000  Level Fort Worth Center
07:21PM 32.5811 -95.3892 31° Northeast 484 557 41,000  Level Fort Worth Center
07:22PM 32.6947 -95.3103 30° Northeast 484 557 41,000  Level Fort Worth Center
07:23PM 32.8206 -95.2183 32° Northeast 473 544 41,000  Level Fort Worth Center
07:24PM 32.9358 -95.1339 32° Northeast 473 544 41,000  Level Fort Worth Center
07:25PM 33.0514 -95.0514 31° Northeast 473 544 41,000  Level Fort Worth Center
07:26PM 33.1667 -94.9692 31° Northeast 478 550 41,000  Level Fort Worth Center
07:27PM 33.2839 -94.8864 31° Northeast 478 550 41,000  Level Fort Worth Center
07:28PM 33.3969 -94.8033 32° Northeast 478 550 41,000  Level Fort Worth Center
07:29PM 33.5122 -94.7203 31° Northeast 478 550 41,000  Level Fort Worth Center
07:30PM 33.6272 -94.6369 31° Northeast 478 550 41,000  Level Fort Worth Center
07:31PM 33.7422 -94.5508 32° Northeast 478 550 41,000  Level Fort Worth Center
07:32PM 33.8592 -94.4669 31° Northeast 483 556 41,000  Level Fort Worth Center
07:35PM 34.1367 -94.2619 31° Northeast 489 563 41,000  Level Memphis Center
07:36PM 34.2542 -94.1767 31° Northeast 484 557 41,000  Level Memphis Center
07:37PM 34.3694 -94.0889 32° Northeast 489 563 41,000  Level Memphis Center
07:38PM 34.4614 -94.0172 33° Northeast 489 563 41,000  Level Memphis Center
07:39PM 34.5839 -93.8889 41° Northeast 484 557 41,000  Level Memphis Center
07:40PM 34.6772 -93.7664 47° Northeast 484 557 41,000  Level Memphis Center
07:41PM 34.7719 -93.6489 46° Northeast 490 564 41,000  Level Memphis Center
07:42PM 34.8672 -93.5233 47° Northeast 490 564 41,000  Level Memphis Center
07:43PM 34.9600 -93.4003 47° Northeast 490 564 41,000  Level Memphis Center
07:44PM 35.0547 -93.2767 47° Northeast 490 564 41,000  Level Memphis Center
07:45PM 35.1383 -93.1731 45° Northeast 490 564 41,000  Level Memphis Center
07:46PM 35.2308 -93.0492 48° Northeast 485 558 41,000  Level Memphis Center
07:47PM 35.3250 -92.9325 45° Northeast 485 558 41,000  Level Memphis Center
07:48PM 35.4175 -92.8003 49° Northeast 492 566 41,000  Level Memphis Center
07:49PM 35.5200 -92.6631 47° Northeast 498 573 41,000  Level Memphis Center
07:50PM 35.6056 -92.5481 48° Northeast 504 580 41,000  Level Memphis Center
07:51PM 35.7017 -92.4225 47° Northeast 504 580 41,000  Level Memphis Center
07:52PM 35.7933 -92.2994 47° Northeast 498 573 41,000  Level Memphis Center
07:53PM 35.8847 -92.1736 48° Northeast 498 573 41,000  Level Memphis Center
07:54PM 35.9869 -92.0347 48° Northeast 498 573 41,000  Level Memphis Center
07:55PM 36.0822 -91.9056 48° Northeast 492 566 41,000  Level Memphis Center
07:56PM 36.1608 -91.7942 49° Northeast 492 566 41,000  Level Memphis Center
07:57PM 36.2581 -91.6644 47° Northeast 492 566 41,000  Level Memphis Center
07:58PM 36.3511 -91.5344 48° Northeast 492 566 41,000  Level Memphis Center
07:59PM 36.4461 -91.4017 48° Northeast 497 572 41,000  Level Memphis Center
08:00PM 36.5536 -91.2586 47° Northeast 506 582 41,000  Level Memphis Center
08:01PM 36.6461 -91.1250 49° Northeast 512 589 41,000  Level Memphis Center
08:02PM 36.7281 -91.0092 49° Northeast 507 583 41,000  Level Memphis Center
08:03PM 36.8267 -90.8753 47° Northeast 507 583 41,000  Level Memphis Center
08:04PM 36.9189 -90.7461 48° Northeast 502 578 41,000  Level Memphis Center
08:06PM 37.1269 -90.4506 49° Northeast 512 589 41,000  Level Kansas City Center
08:07PM 37.2186 -90.3181 49° Northeast 507 583 41,000  Level Kansas City Center
08:08PM 37.3122 -90.1836 49° Northeast 507 583 41,000  Level Kansas City Center
08:09PM 37.4053 -90.0478 49° Northeast 509 586 41,000  Level Kansas City Center
08:10PM 37.5189 -89.8839 49° Northeast 513 590 41,000  Level Kansas City Center
08:11PM 37.5981 -89.7686 49° Northeast 513 590 41,000  Level Kansas City Center
08:12PM 37.7100 -89.6056 49° Northeast 514 592 41,000  Level Kansas City Center
08:13PM 37.8039 -89.4669 49° Northeast 519 597 41,000  Level Kansas City Center
08:14PM 37.9064 -89.3169 49° Northeast 526 605 41,000  Level Kansas City Center
08:15PM 38.0064 -89.1692 49° Northeast 519 597 41,000  Level Kansas City Center
08:16PM 38.0983 -89.0322 50° Northeast 514 592 41,000  Level Kansas City Center
08:17PM 38.1922 -88.8881 50° Northeast 509 586 41,000  Level Kansas City Center
08:18PM 38.2836 -88.7500 50° Northeast 511 588 41,000  Level Kansas City Center
08:19PM 38.3747 -88.6147 49° Northeast 514 592 41,000  Level Kansas City Center
08:20PM 38.4686 -88.4758 49° Northeast 514 592 41,000  Level Kansas City Center
08:21PM 38.5611 -88.3358 50° Northeast 513 590 41,000  Level Kansas City Center
08:22PM 38.6728 -88.1644 50° Northeast 515 593 41,000  Level Kansas City Center
08:23PM 38.7692 -88.0172 50° Northeast 526 605 41,000  Level Kansas City Center
08:24PM 38.8644 -87.8697 50° Northeast 533 613 41,000  Level Kansas City Center
08:25PM 38.9067 -87.7736 61° Northeast 534 615 41,000  Level Indianapolis Center
08:26PM 38.9808 -87.6092 60° Northeast 530 610 41,000  Level Indianapolis Center
08:27PM 39.0556 -87.4422 60° Northeast 532 612 41,000  Level Indianapolis Center
08:28PM 39.1314 -87.2722 60° Northeast 540 621 41,000  Level Indianapolis Center
08:29PM 39.2061 -87.1022 60° Northeast 542 624 41,000  Level Indianapolis Center
08:30PM 39.2825 -86.9300 60° Northeast 548 631 41,000  Level Indianapolis Center
08:31PM 39.3736 -86.7222 60° Northeast 549 632 41,000  Level Indianapolis Center
08:32PM 39.4483 -86.5492 61° Northeast 548 631 41,000  Level Indianapolis Center
08:33PM 39.5242 -86.3761 60° Northeast 547 629 41,000  Level Indianapolis Center
08:34PM 39.5986 -86.2025 61° Northeast 549 632 41,000  Level Indianapolis Center
08:35PM 39.6739 -86.0300 60° Northeast 546 628 41,000  Level Indianapolis Center
08:36PM 39.7428 -85.8631 62° Northeast 546 628 41,000  Level Indianapolis Center
08:37PM 39.8308 -85.6594 61° Northeast 548 631 41,000  Level Indianapolis Center
08:38PM 39.9050 -85.4822 61° Northeast 553 636 41,000  Level Indianapolis Center
08:40PM 39.9797 -85.3039 61° Northeast 555 639 41,000  Level Indianapolis Center
08:41PM 40.0544 -85.1231 62° Northeast 559 643 41,000  Level Indianapolis Center
08:42PM 40.1289 -84.9419 62° Northeast 563 648 41,000  Level Indianapolis Center
08:43PM 40.2039 -84.7597 62° Northeast 563 648 41,000  Level Indianapolis Center
08:44PM 40.2800 -84.5750 62° Northeast 567 652 41,000  Level Indianapolis Center
08:45PM 40.3544 -84.3903 62° Northeast 568 654 41,000  Level Indianapolis Center
08:46PM 40.4303 -84.2044 62° Northeast 569 655 41,000  Level Indianapolis Center
08:47PM 40.5047 -84.0181 62° Northeast 570 656 41,000  Level Indianapolis Center
08:48PM 40.5792 -83.8319 62° Northeast 568 654 41,000  Level Indianapolis Center
08:49PM 40.6653 -83.6133 63° Northeast 568 654 41,000  Level Indianapolis Center
08:50PM 40.7375 -83.4272 63° Northeast 565 650 41,000  Level Indianapolis Center
08:51PM 40.7944 -83.2269 69° East 561 646 41,000  Level Indianapolis Center
08:52PM 40.8311 -83.0256 76° East 545 627 41,000  Level Cleveland Center
08:53PM 40.8558 -82.8314 80° East 545 627 41,000  Level Cleveland Center
08:54PM 40.8867 -82.6347 78° East 545 627 41,000  Level Cleveland Center
08:55PM 40.9172 -82.4406 78° East 540 621 41,000  Level Cleveland Center
08:56PM 40.9494 -82.2408 78° East 547 629 41,000  Level Cleveland Center
08:57PM 40.9792 -82.0436 79° East 547 629 41,000  Level Cleveland Center
08:58PM 41.0000 -81.8706 81° East 541 623 41,000  Level Cleveland Center
08:59PM 41.0356 -81.6483 78° East 553 636 41,000  Level Cleveland Center
09:00PM 41.0644 -81.4506 79° East 553 636 41,000  Level Cleveland Center
09:01PM 41.0928 -81.2497 79° East 553 636 41,000  Level Cleveland Center
09:02PM 41.1189 -81.0708 79° East 553 636 41,000  Level Cleveland Center
09:03PM 41.1467 -80.8728 79° East 548 631 41,000  Level Cleveland Center
09:04PM 41.1761 -80.6714 79° East 548 631 41,000  Level Cleveland Center
09:05PM 41.2033 -80.4756 79° East 548 631 41,000  Level Cleveland Center
09:06PM 41.2300 -80.2767 80° East 543 625 41,000  Level Cleveland Center
09:07PM 41.2564 -80.0778 80° East 543 625 41,000  Level Cleveland Center
09:08PM 41.2844 -79.8647 80° East 536 617 41,000  Level Cleveland Center
09:09PM 41.3103 -79.6708 80° East 531 611 41,000  Level Cleveland Center
09:10PM 41.3336 -79.4881 80° East 537 618 41,000  Level Cleveland Center
09:11PM 41.3583 -79.2775 81° East 537 618 41,000  Level Cleveland Center
09:12PM 41.3811 -79.0861 81° East 530 610 41,000 -360 Level Cleveland Center
09:13PM 41.3911 -78.8947 86° East 524 603 40,300 -900 Descending Cleveland Center
09:14PM 41.3881 -78.7067 91° East 519 597 39,300 -960 Descending Cleveland Center
09:15PM 41.3847 -78.5186 91° East 511 588 38,400 -960 Descending Cleveland Center
09:16PM 41.3811 -78.3250 91° East 511 588 37,400 -1,380 Descending Cleveland Center
09:18PM 41.3728 -78.0231 92° East 527 606 34,700 -2,100 Descending New York Center
09:19PM 41.3697 -77.8347 91° East 527 606 31,700 -1,860 Descending New York Center
09:20PM 41.3636 -77.6514 92° East 514 592 31,000 -360 Descending New York Center
09:21PM 41.3617 -77.4689 91° East 500 575 31,000  Level New York Center
09:22PM 41.3531 -77.2881 94° East 500 575 31,000  Level New York Center
09:23PM 41.3481 -77.1081 92° East 500 575 31,000 -360 Level New York Center
09:24PM 41.3433 -76.9225 92° East 500 575 30,300 -1,500 Descending New York Center
09:25PM 41.3272 -76.7494 97° East 494 568 28,000 -2,340 Descending New York Center
09:26PM 41.2872 -76.5858 108° East 469 540 25,700 -2,280 Descending New York Center
09:27PM 41.2447 -76.4333 110° East 458 527 23,500 -1,920 Descending New York Center
09:28PM 41.2039 -76.2808 110° East 443 510 21,900 -1,320 Descending New York Center
09:29PM 41.1650 -76.1344 109° East 426 490 20,900 -1,200 Descending New York Center
09:30PM 41.1253 -75.9933 110° East 421 484 19,600 -1,800 Descending New York Center
09:31PM 41.0897 -75.8531 109° East 411 473 17,400 -2,400 Descending New York Center
09:32PM 41.0481 -75.7042 110° East 393 452 14,800 -2,280 Descending New York Center
09:33PM 41.0119 -75.5694 110° East 393 452 12,900 -960 Descending New York Center
09:34PM 40.9792 -75.4572 111° Southeast 382 440 12,900 -360 Level New York Center
09:35PM 40.9442 -75.3339 111° Southeast 375 432 12,300 -1,320 Descending New York Center
09:36PM 40.9075 -75.2025 110° East 354 407 10,300 -1,500 Descending New York Center
09:37PM 40.8761 -75.0933 111° Southeast 335 386 9,400 -1,320 Descending New York Center
09:38PM 40.8467 -74.9872 110° East 316 364 7,800 -1,260 Descending New York Center
09:39PM 40.8250 -74.8956 107° East 300 345 6,900 -900 Descending New York Center
09:40PM 40.8722 -74.7939 58° Northeast 261 300 6,000 -480 Descending New York Center
09:41PM 40.9306 -74.7342 38° Northeast 273 314 6,000  Level New York Center
09:42PM 40.9950 -74.6722 36° Northeast 273 314 6,000  Level New York Center
09:43PM 41.0306 -74.6081 54° Northeast 243 280 6,000  Level New York Center
09:44PM 40.9753 -74.5747 156° South 127 146 6,000  Level New York Center
09:45PM 40.9250 -74.5883 192° South 165 190 6,000  Level New York Center
09:46PM 40.8664 -74.5961 186° South 198 228 6,000  Level New York Center
09:46PM 40.8500 -74.5833 149° Southeast 199 229 6,000 -360 Level New York TRACON
09:47PM 40.7833 -74.5667 169° South 190 219 5,500 -540 Descending New York TRACON
09:48PM 40.7333 -74.5500 166° South 188 216 5,000 -300 Descending New York TRACON
09:49PM 40.6833 -74.5667 194° South 194 223 5,000  Level New York TRACON
09:50PM 40.6333 -74.5667 180° South 194 223 5,000  Level New York TRACON
09:51PM 40.5833 -74.5833 194° South 197 227 5,000  Level New York TRACON
09:52PM 40.5333 -74.6167 207° Southwest 193 222 5,000  Level New York TRACON
09:53PM 40.5000 -74.6500 217° Southwest 184 212 5,000  Level New York TRACON
09:54PM 40.4500 -74.6667 194° South 198 228 5,000  Level New York TRACON
09:55PM 40.4167 -74.6167 131° Southeast 201 231 5,000 -420 Level New York TRACON
09:56PM 40.3833 -74.5667 131° Southeast 196 226 4,200 -660 Descending New York TRACON
09:57PM 40.3667 -74.5000 108° East 189 217 3,700 -540 Descending New York TRACON
09:58PM 40.3833 -74.4333 72° East 178 205 3,200 -360 Descending New York TRACON
09:59PM 40.4000 -74.3833 66° East 161 185 3,000 -240 Descending New York TRACON